GW1943 Weather Reports


time (UTC)temp
F
wind
direction
speed
knots
gust
knots
rain 1hr
in
rain 24hr
in
rain mn
in
humidity
%
barometer
mb
20260506004632 67 241 0.9 4.3 0.00 0.00 0.00 67 1016.5
20260506004129 67 258 1.7 1.7 0.00 0.00 0.00 67 1016.3
20260506003620 68 229 0.9 2.6 0.00 0.00 0.00 68 1016.2
20260506003116 68 206 1.7 1.7 0.00 0.00 0.00 66 1016.4
20260506002613 68 225 0.9 0.9 0.00 0.00 0.00 68 1016.2
20260506002108 68 237 1.7 1.7 0.00 0.00 0.00 66 1016.2
20260506001605 69 248 2.6 2.6 0.00 0.00 0.00 64 1016.3
20260506001102 68 241 1.7 2.6 0.00 0.00 0.00 67 1016.3
20260506000600 68 232 1.7 2.6 0.00 0.00 0.00 66 1016.4
20260506000057 70 228 0.0 0.0 0.00 0.00 0.00 65 1016.4
20260505235555 69 229 0.0 1.7 0.00 0.00 0.00 64 1016.6
20260505235052 68 227 1.7 2.6 0.00 0.00 0.00 66 1016.5
20260505234548 65 219 0.9 1.7 0.00 0.00 0.00 71 1016.7
20260505234044 65 228 0.0 0.9 0.00 0.00 0.00 73 1016.8
20260505233542 66 220 0.9 1.7 0.00 0.00 0.00 73 1016.7
20260505233039 64 215 0.0 1.7 0.00 0.00 0.00 75 1016.8
20260505232537 64 221 0.9 2.6 0.00 0.00 0.00 72 1016.9
20260505232035 67 217 1.7 2.6 0.00 0.00 0.00 68 1017.1
20260505231531 67 221 0.9 2.6 0.00 0.00 0.00 70 1016.9
20260505231030 64 229 0.9 1.7 0.00 0.00 0.00 72 1016.6
20260505230527 64 225 0.9 1.7 0.00 0.00 0.00 72 1016.9
20260505230023 64 223 1.7 2.6 0.00 0.00 0.00 72 1017.1
20260505225520 64 214 1.7 2.6 0.00 0.00 0.00 73 1016.9
20260505225016 65 238 2.6 4.3 0.00 0.00 0.00 70 1017.0
20260505224514 64 271 0.9 1.7 0.00 0.00 0.00 73 1017.0
20260505224011 63 205 0.0 0.0 0.00 0.00 0.00 78 1017.2
20260505223508 63 233 1.7 1.7 0.00 0.00 0.00 75 1017.3
20260505223004 63 258 1.7 2.6 0.00 0.00 0.00 74 1017.0
20260505222500 62 226 0.9 2.6 0.00 0.00 0.00 75 1017.3
20260505221955 63 235 2.6 5.2 0.00 0.00 0.00 75 1017.1
20260505221453 62 228 1.7 2.6 0.00 0.00 0.00 75 1017.5
20260505220950 62 219 0.0 0.9 0.00 0.00 0.00 78 1017.4
20260505220447 62 228 1.7 1.7 0.00 0.00 0.00 76 1017.5
20260505215945 62 229 0.9 1.7 0.00 0.00 0.00 76 1017.4
20260505215443 61 220 1.7 2.6 0.00 0.00 0.00 77 1017.6
20260505214940 62 226 1.7 1.7 0.00 0.00 0.00 76 1017.6
20260505214438 62 234 1.7 1.7 0.00 0.00 0.00 77 1017.6
20260505213935 62 223 0.0 1.7 0.00 0.00 0.00 77 1017.5
20260505213433 61 221 0.9 1.7 0.00 0.00 0.00 77 1017.4
20260505212929 61 223 0.9 1.7 0.00 0.00 0.00 78 1017.8
20260505212426 60 220 0.0 4.3 0.00 0.00 0.00 80 1017.5
20260505211922 60 224 1.7 2.6 0.00 0.00 0.00 78 1017.3
20260505211420 61 208 0.9 2.6 0.00 0.00 0.00 78 1017.5
20260505210916 60 225 0.9 2.6 0.00 0.00 0.00 79 1017.6
20260505210413 60 225 0.9 4.3 0.00 0.00 0.00 80 1017.5
20260505205910 60 227 0.9 2.6 0.00 0.00 0.00 79 1017.7
20260505205408 60 224 0.0 1.7 0.00 0.00 0.00 80 1017.6
20260505204905 60 214 1.7 2.6 0.00 0.00 0.00 79 1017.7
20260505204403 60 242 2.6 2.6 0.00 0.00 0.00 81 1017.6
20260505203900 60 223 1.7 2.6 0.00 0.00 0.00 80 1017.9
20260505203356 60 240 2.6 2.6 0.00 0.00 0.00 81 1017.7
20260505202852 60 229 2.6 2.6 0.00 0.00 0.00 80 1017.9
20260505202349 59 214 2.6 2.6 0.00 0.00 0.00 81 1017.8
20260505201846 59 237 0.9 2.6 0.00 0.00 0.00 81 1017.9
20260505201343 60 252 1.7 2.6 0.00 0.00 0.00 80 1017.6
20260505200841 59 235 0.9 4.3 0.00 0.00 0.00 81 1017.7
20260505200338 59 215 1.7 4.3 0.00 0.00 0.00 80 1017.5
20260505195833 59 225 1.7 2.6 0.00 0.00 0.00 81 1017.5
20260505195330 59 214 1.7 4.3 0.00 0.00 0.00 81 1017.9
20260505194827 59 218 0.9 2.6 0.00 0.00 0.00 81 1017.9
20260505194325 59 215 0.9 2.6 0.00 0.00 0.00 82 1017.8
20260505193820 59 232 0.9 2.6 0.00 0.00 0.00 82 1017.8
20260505193318 59 224 0.0 4.3 0.00 0.00 0.00 82 1017.8
20260505192816 59 224 1.7 4.3 0.00 0.00 0.00 82 1017.6
20260505192314 59 214 0.9 1.7 0.00 0.00 0.00 83 1017.7
20260505191811 58 232 0.9 2.6 0.00 0.00 0.00 83 1017.6
20260505191309 58 250 1.7 2.6 0.00 0.00 0.00 83 1017.6
20260505190806 58 223 0.9 2.6 0.00 0.00 0.00 83 1017.6
20260505190301 58 221 0.9 2.6 0.00 0.00 0.00 83 1017.6
20260505185757 58 212 0.9 1.7 0.00 0.00 0.00 83 1017.7
20260505185254 58 216 0.9 2.6 0.00 0.00 0.00 84 1017.6
20260505184750 58 233 1.7 5.2 0.00 0.00 0.00 83 1017.4
20260505184247 58 239 0.9 2.6 0.00 0.00 0.00 84 1017.6
20260505183744 58 214 0.9 4.3 0.00 0.00 0.00 83 1017.3
20260505183241 58 238 0.0 0.9 0.00 0.00 0.00 85 1017.5
20260505182738 58 232 0.9 2.6 0.00 0.00 0.00 84 1017.8
20260505182235 58 244 2.6 2.6 0.00 0.00 0.00 83 1017.5
20260505181731 58 213 2.6 2.6 0.00 0.00 0.00 83 1017.4
20260505181229 58 260 0.9 1.7 0.00 0.00 0.00 84 1017.6
20260505180725 57 217 0.0 1.7 0.00 0.00 0.00 85 1017.4
20260505180222 57 223 0.9 1.7 0.00 0.00 0.00 84 1017.7
20260505175718 57 223 0.9 1.7 0.00 0.00 0.00 84 1017.6
20260505175214 57 251 0.0 1.7 0.00 0.00 0.00 85 1017.5
20260505174711 57 230 1.7 1.7 0.00 0.00 0.00 85 1017.5
20260505174208 57 213 0.0 1.7 0.00 0.00 0.00 86 1017.5
20260505173704 57 221 1.7 2.6 0.00 0.00 0.00 85 1017.4
20260505173201 57 220 0.9 2.6 0.00 0.00 0.00 85 1017.4
20260505172658 57 224 1.7 2.6 0.00 0.00 0.00 86 1017.2
20260505172155 57 221 0.0 2.6 0.00 0.00 0.00 85 1017.6
20260505171654 57 219 0.9 0.9 0.00 0.00 0.00 86 1017.4
20260505171152 57 217 0.0 2.6 0.00 0.00 0.00 86 1017.3
20260505170649 57 220 0.0 2.6 0.00 0.00 0.00 86 1017.4
20260505170146 57 210 1.7 2.6 0.00 0.00 0.00 86 1017.5
20260505165646 57 213 0.9 0.9 0.00 0.00 0.00 87 1017.4
20260505165142 57 217 0.9 2.6 0.00 0.00 0.00 86 1017.1
20260505164638 57 218 0.0 1.7 0.00 0.00 0.00 86 1017.4
20260505164136 57 216 0.9 0.9 0.00 0.00 0.00 86 1017.3
20260505163634 56 212 1.7 2.6 0.00 0.00 0.00 85 1017.1
20260505163131 57 235 1.7 2.6 0.00 0.00 0.00 86 1017.1
20260505162628 57 214 0.0 0.0 0.00 0.00 0.00 86 1017.2
20260505162127 56 215 0.0 1.7 0.00 0.00 0.00 86 1017.2
20260505161623 56 214 0.0 0.0 0.00 0.00 0.00 86 1017.3
20260505161120 56 217 0.0 0.0 0.00 0.00 0.00 86 1017.0
20260505160618 56 216 0.0 0.9 0.00 0.00 0.00 86 1017.2
20260505160115 56 215 0.0 0.9 0.00 0.00 0.00 86 1017.0
20260505153055 56 217 0.9 1.7 0.00 0.00 0.00 88 1017.2
20260505152551 56 217 0.0 1.7 0.00 0.00 0.00 87 1016.9
20260505152047 56 216 0.0 0.0 0.00 0.00 0.00 88 1016.9
20260505151542 55 216 0.9 1.7 0.00 0.00 0.00 87 1017.0
20260505151040 55 218 0.9 1.7 0.00 0.00 0.00 88 1017.0
20260505150536 55 211 0.0 4.3 0.00 0.00 0.00 87 1017.0
20260505140501 55 211 0.9 0.9 0.00 0.00 0.00 88 1016.4
20260505124915 55 214 0.0 1.7 0.00 0.00 0.00 88 1015.7
20260505124412 55 218 0.0 1.7 0.00 0.00 0.00 88 1015.7
20260505123908 55 213 0.0 0.9 0.00 0.00 0.00 88 1015.4
20260505123404 55 212 2.6 6.1 0.00 0.00 0.00 88 1015.6
20260505122900 55 227 0.9 2.6 0.00 0.00 0.00 88 1015.7
20260505122358 55 211 0.9 1.7 0.00 0.00 0.00 88 1015.5
20260505121854 55 213 0.9 5.2 0.00 0.00 0.00 89 1015.4
20260505121351 55 208 0.0 1.7 0.00 0.00 0.00 89 1015.6
20260505120847 55 211 0.0 2.6 0.00 0.00 0.00 89 1015.6
20260505120343 55 204 2.6 2.6 0.00 0.00 0.00 89 1015.6
20260505115842 55 213 0.0 2.6 0.00 0.00 0.00 89 1015.2
20260505115340 55 216 0.0 0.0 0.00 0.00 0.00 89 1015.4
20260505114838 55 215 0.0 0.9 0.00 0.00 0.00 89 1015.4
20260505114334 55 215 0.0 0.9 0.00 0.00 0.00 89 1015.4
20260505113830 55 214 0.9 1.7 0.00 0.00 0.00 89 1015.5
20260505113327 55 214 0.0 0.0 0.00 0.00 0.00 89 1015.4
20260505112823 55 225 0.0 1.7 0.00 0.00 0.00 89 1015.1
20260505112320 55 213 0.9 2.6 0.00 0.00 0.00 89 1015.4
20260505111816 55 212 0.0 2.6 0.00 0.00 0.00 89 1015.0
20260505111311 55 215 1.7 2.6 0.00 0.00 0.00 89 1015.2
20260505110807 55 213 0.0 2.6 0.00 0.00 0.00 89 1015.3
20260505110305 55 214 0.0 1.7 0.00 0.00 0.00 89 1015.1
20260505101739 55 206 2.6 4.3 0.00 0.00 0.00 89 1014.9
20260505101235 55 210 0.0 1.7 0.00 0.00 0.00 90 1015.1
20260505100732 55 237 0.9 1.7 0.00 0.00 0.00 90 1014.8
20260505100229 55 212 1.7 4.3 0.00 0.00 0.00 90 1014.8
20260505095724 55 214 0.0 2.6 0.00 0.00 0.00 90 1014.8
20260505095222 55 205 0.9 1.7 0.00 0.00 0.00 90 1014.9
20260505094718 55 215 0.9 2.6 0.00 0.00 0.00 90 1014.7
20260505094214 55 212 0.0 2.6 0.00 0.00 0.00 90 1014.9
20260505093711 54 227 0.0 1.7 0.00 0.00 0.00 91 1014.8
20260505093208 54 209 1.7 4.3 0.00 0.00 0.00 91 1014.6
20260505092705 54 206 1.7 2.6 0.00 0.00 0.00 92 1014.7
20260505092204 54 211 0.0 0.9 0.00 0.00 0.00 91 1014.4
20260505091700 54 195 0.0 1.7 0.00 0.00 0.00 91 1014.7
20260505091158 54 212 0.0 2.6 0.00 0.00 0.00 91 1014.6
20260505090656 54 215 0.9 2.6 0.00 0.00 0.00 91 1014.6
20260505090154 54 209 0.9 4.3 0.00 0.00 0.00 91 1014.5
20260505085651 54 209 1.7 2.6 0.00 0.00 0.00 91 1014.6
20260505085149 54 200 0.9 1.7 0.00 0.00 0.00 91 1014.5
20260505084646 54 209 0.0 0.9 0.00 0.00 0.00 91 1014.5
20260505084145 54 213 0.0 0.0 0.00 0.00 0.00 90 1014.3
20260505083642 55 211 0.0 4.3 0.00 0.00 0.00 90 1014.3
20260505083138 55 211 1.7 2.6 0.00 0.00 0.00 90 1014.3
20260505082634 55 205 0.0 1.7 0.00 0.00 0.00 90 1014.5
20260505082131 55 218 0.9 2.6 0.00 0.00 0.00 90 1014.5
20260505081627 55 211 0.0 0.0 0.00 0.00 0.00 90 1014.6
20260505081125 55 215 0.0 4.3 0.00 0.00 0.00 89 1014.5
20260505080621 55 216 0.9 0.9 0.00 0.00 0.00 89 1014.4
20260505080117 55 212 0.0 1.7 0.00 0.00 0.00 90 1014.2
20260505075614 55 211 0.0 1.7 0.00 0.00 0.00 90 1014.2
20260505075111 55 212 0.0 0.9 0.00 0.00 0.00 89 1014.1
20260505074607 55 211 0.0 1.7 0.00 0.00 0.00 89 1014.0
20260505074105 55 211 0.9 0.9 0.00 0.00 0.00 89 1014.1
20260505073602 55 213 0.0 0.9 0.00 0.00 0.00 89 1014.2
20260505073101 55 217 0.9 0.9 0.00 0.00 0.00 89 1014.1
20260505072556 55 213 0.0 1.7 0.00 0.00 0.00 88 1014.0
20260505072053 55 214 0.9 0.9 0.00 0.00 0.00 88 1013.9
20260505071548 55 211 0.0 1.7 0.00 0.00 0.00 88 1013.9
20260505071046 55 212 0.9 1.7 0.00 0.00 0.00 88 1014.0
20260505070543 56 211 0.9 1.7 0.00 0.00 0.00 88 1013.7
20260505070039 56 215 0.9 0.9 0.00 0.00 0.00 87 1013.9
20260505065535 56 209 0.0 4.3 0.00 0.00 0.00 87 1013.8
20260505065032 56 216 0.0 4.3 0.00 0.00 0.00 87 1013.9
20260505064529 56 210 1.7 5.2 0.00 0.00 0.00 87 1013.9
20260505064027 56 222 0.9 6.1 0.00 0.00 0.00 87 1013.8
20260505063524 56 220 0.9 5.2 0.00 0.00 0.00 86 1013.8
20260505063020 57 204 0.0 1.7 0.00 0.00 0.00 86 1013.6
20260505062517 57 216 2.6 4.3 0.00 0.00 0.00 86 1013.5
20260505062014 57 213 0.9 5.2 0.00 0.00 0.00 85 1013.6
20260505061512 57 207 0.9 1.7 0.00 0.00 0.00 85 1013.2
20260505061009 57 215 0.9 2.6 0.00 0.00 0.00 85 1013.2
20260505060507 57 211 0.0 5.2 0.00 0.00 0.00 84 1013.2
20260505060003 58 213 0.0 2.6 0.00 0.00 0.00 84 1013.2
20260505055458 58 210 0.0 0.9 0.00 0.00 0.00 83 1013.4
20260505054955 58 201 0.9 2.6 0.00 0.00 0.00 83 1013.1
20260505054453 58 212 0.0 6.1 0.00 0.00 0.00 83 1013.2
20260505053950 59 213 0.0 0.9 0.00 0.00 0.00 82 1013.3
20260505053447 59 210 0.9 2.6 0.00 0.00 0.00 82 1012.9
20260505052944 59 217 0.9 2.6 0.00 0.00 0.00 81 1013.1
20260505052441 60 210 1.7 5.2 0.00 0.00 0.00 80 1013.2
20260505051938 60 213 0.9 4.3 0.00 0.00 0.00 79 1013.0
20260505051435 60 216 0.9 2.6 0.00 0.00 0.00 78 1013.0
20260505050933 61 213 0.0 1.7 0.00 0.00 0.00 78 1012.8
20260505050432 61 219 2.6 4.3 0.00 0.00 0.00 77 1012.7
20260505041359 65 218 0.9 1.7 0.00 0.00 0.00 73 1012.1
20260505040856 65 212 1.7 2.6 0.00 0.00 0.00 71 1011.7
20260505040354 65 219 0.9 2.6 0.00 0.00 0.00 72 1011.9
20260505035850 66 218 0.0 0.9 0.00 0.00 0.00 72 1011.9
20260505035346 66 231 0.9 1.7 0.00 0.00 0.00 70 1011.9
20260505034844 66 217 0.9 1.7 0.00 0.00 0.00 71 1011.5
20260505034340 67 216 2.6 2.6 0.00 0.00 0.00 68 1011.5
20260505033837 67 219 0.9 4.3 0.00 0.00 0.00 67 1011.4
20260505033334 68 225 1.7 2.6 0.00 0.00 0.00 67 1011.4
20260505032832 68 223 0.9 1.7 0.00 0.00 0.00 67 1011.4
20260505032328 68 245 1.7 2.6 0.00 0.00 0.00 65 1011.2
20260505031826 69 218 0.9 0.9 0.00 0.00 0.00 65 1011.3
20260505031322 70 221 0.9 2.6 0.00 0.00 0.00 63 1011.2
20260505030819 71 220 0.0 2.6 0.00 0.00 0.00 62 1011.0
20260505030315 71 226 1.7 2.6 0.00 0.00 0.00 60 1010.9
20260505025810 72 221 1.7 2.6 0.00 0.00 0.00 59 1010.8
20260505025309 73 221 0.9 4.3 0.00 0.00 0.00 57 1010.8
20260505024807 73 221 0.9 2.6 0.00 0.00 0.00 57 1011.0
20260505024304 73 220 0.0 2.6 0.00 0.00 0.00 58 1010.9
20260505023801 74 225 1.7 1.7 0.00 0.00 0.00 58 1010.9
20260505023258 74 221 1.7 2.6 0.00 0.00 0.00 59 1010.6
20260505022755 75 290 0.9 2.6 0.00 0.00 0.00 57 1010.6
20260505022252 76 213 0.9 2.6 0.00 0.00 0.00 57 1010.9
20260505021749 76 208 0.9 1.7 0.00 0.00 0.00 54 1011.0
20260505021246 77 216 0.9 1.7 0.00 0.00 0.00 54 1010.7
20260505020742 77 236 1.7 2.6 0.00 0.00 0.00 51 1010.8
20260505020237 78 225 0.9 1.7 0.00 0.00 0.00 49 1010.8
20260505015735 78 232 0.0 2.6 0.00 0.00 0.00 49 1010.8
20260505015231 78 231 0.9 4.3 0.00 0.00 0.00 48 1010.7
20260505014729 78 226 0.9 2.6 0.00 0.00 0.00 47 1010.8
20260505014226 79 235 1.7 2.6 0.00 0.00 0.00 46 1010.8
20260505013722 79 225 1.7 2.6 0.00 0.00 0.00 45 1010.9
20260505013220 79 255 0.9 2.6 0.00 0.00 0.00 45 1011.0
20260505012718 79 235 0.9 2.6 0.00 0.00 0.00 44 1010.7
20260505012215 79 242 0.9 2.6 0.00 0.00 0.00 45 1010.7
20260505011710 79 225 1.7 2.6 0.00 0.00 0.00 42 1010.9
20260505011208 79 239 0.9 4.3 0.00 0.00 0.00 45 1010.9
20260505010703 79 227 0.9 2.6 0.00 0.00 0.00 43 1010.9
20260505010200 80 244 1.7 2.6 0.00 0.00 0.00 42 1011.1
20260505005656 81 247 2.6 2.6 0.00 0.00 0.00 40 1011.0
20260505005153 81 229 1.7 4.3 0.00 0.00 0.00 40 1011.1